Year,Month,Day,Hour,Minute,Value (Times are PST for temperature in C)
2013,07,17,00,00,22.00
2013,07,17,00,01,22.00
2013,07,17,00,02,22.10
2013,07,17,00,03,22.10
2013,07,17,00,04,22.10
2013,07,17,00,05,22.10
2013,07,17,00,06,22.10
2013,07,17,00,07,22.10
2013,07,17,00,08,22.20
2013,07,17,00,09,22.20
2013,07,17,00,10,22.30
2013,07,17,00,11,22.40
2013,07,17,00,12,22.40
2013,07,17,00,13,22.50
2013,07,17,00,14,22.60
2013,07,17,00,15,22.70
2013,07,17,00,16,22.70
2013,07,17,00,17,22.70
2013,07,17,00,18,22.80
2013,07,17,00,19,22.80
2013,07,17,00,20,22.90
2013,07,17,00,21,22.90
2013,07,17,00,22,22.90
2013,07,17,00,23,23.00
2013,07,17,00,24,23.00
2013,07,17,00,25,23.00
2013,07,17,00,26,23.00
2013,07,17,00,27,23.10
2013,07,17,00,28,23.10
2013,07,17,00,29,23.10
2013,07,17,00,30,23.10
2013,07,17,00,31,23.10
2013,07,17,00,32,23.10
2013,07,17,00,33,23.10
2013,07,17,00,34,23.10
2013,07,17,00,35,23.20
2013,07,17,00,36,23.20
2013,07,17,00,37,23.20
2013,07,17,00,38,23.20
2013,07,17,00,39,23.20
2013,07,17,00,40,23.20
2013,07,17,00,41,23.20
2013,07,17,00,42,23.20
2013,07,17,00,43,23.20
2013,07,17,00,44,23.30
2013,07,17,00,45,23.30
2013,07,17,00,46,23.30
2013,07,17,00,47,23.30
2013,07,17,00,48,23.40
2013,07,17,00,49,23.40
2013,07,17,00,50,23.40
2013,07,17,00,51,23.40
2013,07,17,00,52,23.40
2013,07,17,00,53,23.40
2013,07,17,00,54,23.40
2013,07,17,00,55,23.40
2013,07,17,00,56,23.50
2013,07,17,00,57,23.50
2013,07,17,00,58,23.50
2013,07,17,00,59,23.50
2013,07,17,01,00,23.60
2013,07,17,01,01,23.70
2013,07,17,01,02,23.80
2013,07,17,01,03,23.90
2013,07,17,01,04,24.00
2013,07,17,01,05,24.10
2013,07,17,01,06,24.20
2013,07,17,01,07,24.30
2013,07,17,01,08,24.30
2013,07,17,01,09,24.40
2013,07,17,01,10,24.50
2013,07,17,01,11,24.60
2013,07,17,01,12,24.70
2013,07,17,01,13,24.70
2013,07,17,01,14,24.80
2013,07,17,01,15,24.90
2013,07,17,01,16,25.00
2013,07,17,01,17,25.00
2013,07,17,01,18,25.10
2013,07,17,01,19,25.10
2013,07,17,01,20,25.10
2013,07,17,01,21,25.10
2013,07,17,01,22,25.10
2013,07,17,01,23,25.10
2013,07,17,01,24,25.10
2013,07,17,01,25,25.10
2013,07,17,01,26,25.10
2013,07,17,01,27,25.10
2013,07,17,01,28,25.10
2013,07,17,01,29,25.10
2013,07,17,01,30,25.10
2013,07,17,01,31,25.20
2013,07,17,01,32,25.20
2013,07,17,01,33,25.20
2013,07,17,01,34,25.20
2013,07,17,01,35,25.20
2013,07,17,01,36,25.20
2013,07,17,01,37,25.30
2013,07,17,01,38,25.30
2013,07,17,01,39,25.30
2013,07,17,01,40,25.40
2013,07,17,01,41,25.30
2013,07,17,01,42,25.20
2013,07,17,01,43,25.00
2013,07,17,01,44,24.80
2013,07,17,01,45,24.50
2013,07,17,01,46,24.20
2013,07,17,01,47,23.90
2013,07,17,01,48,23.70
2013,07,17,01,49,23.50
2013,07,17,01,50,23.30
2013,07,17,01,51,23.10
2013,07,17,01,52,22.80
2013,07,17,01,53,22.50
2013,07,17,01,54,22.30
2013,07,17,01,55,22.20
2013,07,17,01,56,22.00
2013,07,17,01,57,21.90
2013,07,17,01,58,21.80
2013,07,17,01,59,21.70
2013,07,17,02,00,21.60
2013,07,17,02,01,21.60
2013,07,17,02,02,21.50
2013,07,17,02,03,21.50
2013,07,17,02,04,21.60
2013,07,17,02,05,21.60
2013,07,17,02,06,21.70
2013,07,17,02,07,21.80
2013,07,17,02,08,21.80
2013,07,17,02,09,21.90
2013,07,17,02,10,22.00
2013,07,17,02,11,22.00
2013,07,17,02,12,22.10
2013,07,17,02,13,22.20
2013,07,17,02,14,22.30
2013,07,17,02,15,22.40
2013,07,17,02,16,22.50
2013,07,17,02,17,22.70
2013,07,17,02,18,22.90
2013,07,17,02,19,23.00
2013,07,17,02,20,23.20
2013,07,17,02,21,23.40
2013,07,17,02,22,23.60
2013,07,17,02,23,23.80
2013,07,17,02,24,24.00
2013,07,17,02,25,24.10
2013,07,17,02,26,24.20
2013,07,17,02,27,24.30
2013,07,17,02,28,24.30
2013,07,17,02,29,24.30
2013,07,17,02,30,24.40
2013,07,17,02,31,24.40
2013,07,17,02,32,24.40
2013,07,17,02,33,24.40
2013,07,17,02,34,24.40
2013,07,17,02,35,24.40
2013,07,17,02,36,24.30
2013,07,17,02,37,24.10
2013,07,17,02,38,23.80
2013,07,17,02,39,23.50
2013,07,17,02,40,23.30
2013,07,17,02,41,22.90
2013,07,17,02,42,22.70
2013,07,17,02,43,22.40
2013,07,17,02,44,22.20
2013,07,17,02,45,21.90
2013,07,17,02,46,21.60
2013,07,17,02,47,21.50
2013,07,17,02,48,21.30
2013,07,17,02,49,21.20
2013,07,17,02,50,21.10
2013,07,17,02,51,21.10
2013,07,17,02,52,21.00
2013,07,17,02,53,20.90
2013,07,17,02,54,20.90
2013,07,17,02,55,20.90
2013,07,17,02,56,20.90
2013,07,17,02,57,20.80
2013,07,17,02,58,20.80
2013,07,17,02,59,20.80
2013,07,17,03,00,20.80
2013,07,17,03,01,20.80
2013,07,17,03,02,20.80
2013,07,17,03,03,20.80
2013,07,17,03,04,20.80
2013,07,17,03,05,20.80
2013,07,17,03,06,20.80
2013,07,17,03,07,20.80
2013,07,17,03,08,20.70
2013,07,17,03,09,20.70
2013,07,17,03,10,20.70
2013,07,17,03,11,20.70
2013,07,17,03,12,20.60
2013,07,17,03,13,20.60
2013,07,17,03,14,20.60
2013,07,17,03,15,20.60
2013,07,17,03,16,20.50
2013,07,17,03,17,20.50
2013,07,17,03,18,20.40
2013,07,17,03,19,20.30
2013,07,17,03,20,20.20
2013,07,17,03,21,20.20
2013,07,17,03,22,20.10
2013,07,17,03,23,20.10
2013,07,17,03,24,20.00
2013,07,17,03,25,20.00
2013,07,17,03,26,19.90
2013,07,17,03,27,19.90
2013,07,17,03,28,19.90
2013,07,17,03,29,19.90
2013,07,17,03,30,19.80
2013,07,17,03,31,19.80
2013,07,17,03,32,19.80
2013,07,17,03,33,19.80
2013,07,17,03,34,19.80
2013,07,17,03,35,19.80
2013,07,17,03,36,19.80
2013,07,17,03,37,19.80
2013,07,17,03,38,19.80
2013,07,17,03,39,19.80
2013,07,17,03,40,19.80
2013,07,17,03,41,19.80
2013,07,17,03,42,19.90
2013,07,17,03,43,20.00
2013,07,17,03,44,20.00
2013,07,17,03,45,20.10
2013,07,17,03,46,20.20
2013,07,17,03,47,20.20
2013,07,17,03,48,20.30
2013,07,17,03,49,20.30
2013,07,17,03,50,20.40
2013,07,17,03,51,20.50
2013,07,17,03,52,20.50
2013,07,17,03,53,20.60
2013,07,17,03,54,20.60
2013,07,17,03,55,20.60
2013,07,17,03,56,20.60
2013,07,17,03,57,20.60
2013,07,17,03,58,20.70
2013,07,17,03,59,20.70
2013,07,17,04,00,20.70
2013,07,17,04,01,20.70
2013,07,17,04,02,20.60
2013,07,17,04,03,20.50
2013,07,17,04,04,20.30
2013,07,17,04,05,20.20
2013,07,17,04,06,20.10
2013,07,17,04,07,20.00
2013,07,17,04,08,19.90
2013,07,17,04,09,19.80
2013,07,17,04,10,19.80
2013,07,17,04,11,19.70
2013,07,17,04,12,19.70
2013,07,17,04,13,19.70
2013,07,17,04,14,19.70
2013,07,17,04,15,19.70
2013,07,17,04,16,19.70
2013,07,17,04,17,19.70
2013,07,17,04,18,19.70
2013,07,17,04,19,19.70
2013,07,17,04,20,19.70
2013,07,17,04,21,19.70
2013,07,17,04,22,19.70
2013,07,17,04,23,19.70
2013,07,17,04,24,19.70
2013,07,17,04,25,19.70
2013,07,17,04,26,19.70
2013,07,17,04,27,19.70
2013,07,17,04,28,19.70
2013,07,17,04,29,19.70
2013,07,17,04,30,19.70
2013,07,17,04,31,19.70
2013,07,17,04,32,19.70
2013,07,17,04,33,19.70
2013,07,17,04,34,19.70
2013,07,17,04,35,19.70
2013,07,17,04,36,19.80
2013,07,17,04,37,19.80
2013,07,17,04,38,19.80
2013,07,17,04,39,19.90
2013,07,17,04,40,19.90
2013,07,17,04,41,19.90
2013,07,17,04,42,20.00
2013,07,17,04,43,20.00
2013,07,17,04,44,20.00
2013,07,17,04,45,20.10
2013,07,17,04,46,20.10
2013,07,17,04,47,20.10
2013,07,17,04,48,20.10
2013,07,17,04,49,20.10
2013,07,17,04,50,20.10
2013,07,17,04,51,20.20
2013,07,17,04,52,20.20
2013,07,17,04,53,20.20
2013,07,17,04,54,20.20
2013,07,17,04,55,20.20
2013,07,17,04,56,20.20
2013,07,17,04,57,20.20
2013,07,17,04,58,20.20
2013,07,17,04,59,20.20
2013,07,17,05,00,20.20
2013,07,17,05,01,20.20
2013,07,17,05,02,20.20
2013,07,17,05,03,20.20
2013,07,17,05,04,20.20
2013,07,17,05,05,20.20
2013,07,17,05,06,20.20
2013,07,17,05,07,20.20
2013,07,17,05,08,20.20
2013,07,17,05,09,20.20
2013,07,17,05,10,20.20
2013,07,17,05,11,20.20
2013,07,17,05,12,20.20
2013,07,17,05,13,20.20
2013,07,17,05,14,20.30
2013,07,17,05,15,20.20
2013,07,17,05,16,20.20
2013,07,17,05,17,20.10
2013,07,17,05,18,20.00
2013,07,17,05,19,19.90
2013,07,17,05,20,19.80
2013,07,17,05,21,19.70
2013,07,17,05,22,19.60
2013,07,17,05,23,19.50
2013,07,17,05,24,19.40
2013,07,17,05,25,19.30
2013,07,17,05,26,19.20
2013,07,17,05,27,19.00
2013,07,17,05,28,18.90
2013,07,17,05,29,18.80
2013,07,17,05,30,18.70
2013,07,17,05,31,18.70
2013,07,17,05,32,18.60
2013,07,17,05,33,18.60
2013,07,17,05,34,18.50
2013,07,17,05,35,18.50
2013,07,17,05,36,18.40
2013,07,17,05,37,18.30
2013,07,17,05,38,18.30
2013,07,17,05,39,18.30
2013,07,17,05,40,18.20
2013,07,17,05,41,18.20
2013,07,17,05,42,18.20
2013,07,17,05,43,18.10
2013,07,17,05,44,18.10
2013,07,17,05,45,18.10
2013,07,17,05,46,18.10
2013,07,17,05,47,18.00
2013,07,17,05,48,18.00
2013,07,17,05,49,18.00
2013,07,17,05,50,18.00
2013,07,17,05,51,17.90
2013,07,17,05,52,18.00
2013,07,17,05,53,18.00
2013,07,17,05,54,18.00
2013,07,17,05,55,18.00
2013,07,17,05,56,18.10
2013,07,17,05,57,18.10
2013,07,17,05,58,18.20
2013,07,17,05,59,18.20
2013,07,17,06,00,18.30
2013,07,17,06,01,18.30
2013,07,17,06,02,18.30
2013,07,17,06,03,18.30
2013,07,17,06,04,18.30
2013,07,17,06,05,18.40
2013,07,17,06,06,18.40
2013,07,17,06,07,18.40
2013,07,17,06,08,18.40
2013,07,17,06,09,18.50
2013,07,17,06,10,18.60
2013,07,17,06,11,18.70
2013,07,17,06,12,18.70
2013,07,17,06,13,18.80
2013,07,17,06,14,18.90
2013,07,17,06,15,19.00
2013,07,17,06,16,19.10
2013,07,17,06,17,19.20
2013,07,17,06,18,19.20
2013,07,17,06,19,19.30
2013,07,17,06,20,19.30
2013,07,17,06,21,19.30
2013,07,17,06,22,19.40
2013,07,17,06,23,19.40
2013,07,17,06,24,19.40
2013,07,17,06,25,19.50
2013,07,17,06,26,19.50
2013,07,17,06,27,19.50
2013,07,17,06,28,19.60
2013,07,17,06,29,19.60
2013,07,17,06,30,19.60
2013,07,17,06,31,19.60
2013,07,17,06,32,19.60
2013,07,17,06,33,19.60
2013,07,17,06,34,19.60
2013,07,17,06,35,19.70
2013,07,17,06,36,19.70
2013,07,17,06,37,19.70
2013,07,17,06,38,19.70
2013,07,17,06,39,19.70
2013,07,17,06,40,19.70
2013,07,17,06,41,19.70
2013,07,17,06,42,19.80
2013,07,17,06,43,19.80
2013,07,17,06,44,19.80
2013,07,17,06,45,19.80
2013,07,17,06,46,19.80
2013,07,17,06,47,19.80
2013,07,17,06,48,19.80
2013,07,17,06,49,19.80
2013,07,17,06,50,19.90
2013,07,17,06,51,19.90
2013,07,17,06,52,19.90
2013,07,17,06,53,19.90
2013,07,17,06,54,19.90
2013,07,17,06,55,20.00
2013,07,17,06,56,20.00
2013,07,17,06,57,20.00
2013,07,17,06,58,20.00
2013,07,17,06,59,20.00
2013,07,17,07,00,20.10
2013,07,17,07,01,20.10
2013,07,17,07,02,20.00
2013,07,17,07,03,20.00
2013,07,17,07,04,20.00
2013,07,17,07,05,19.90
2013,07,17,07,06,19.90
2013,07,17,07,07,19.80
2013,07,17,07,08,19.70
2013,07,17,07,09,19.60
2013,07,17,07,10,19.40
2013,07,17,07,11,19.20
2013,07,17,07,12,19.10
2013,07,17,07,13,19.00
2013,07,17,07,14,18.90
2013,07,17,07,15,18.80
2013,07,17,07,16,18.70
2013,07,17,07,17,18.60
2013,07,17,07,18,18.50
2013,07,17,07,19,18.50
2013,07,17,07,20,18.40
2013,07,17,07,21,18.30
2013,07,17,07,22,18.30
2013,07,17,07,23,18.30
2013,07,17,07,24,18.20
2013,07,17,07,25,18.20
2013,07,17,07,26,18.20
2013,07,17,07,27,18.20
2013,07,17,07,28,18.10
2013,07,17,07,29,18.10
2013,07,17,07,30,18.10
2013,07,17,07,31,18.10
2013,07,17,07,32,18.10
2013,07,17,07,33,18.10
2013,07,17,07,34,18.10
2013,07,17,07,35,18.10
2013,07,17,07,36,18.00
2013,07,17,07,37,18.00
2013,07,17,07,38,18.00
2013,07,17,07,39,18.00
2013,07,17,07,40,18.00
2013,07,17,07,41,18.00
2013,07,17,07,42,18.10
2013,07,17,07,43,18.10
2013,07,17,07,44,18.10
2013,07,17,07,45,18.10
2013,07,17,07,46,18.20
2013,07,17,07,47,18.20
2013,07,17,07,48,18.20
2013,07,17,07,49,18.20
2013,07,17,07,50,18.30
2013,07,17,07,51,18.30
2013,07,17,07,52,18.30
2013,07,17,07,53,18.30
2013,07,17,07,54,18.30
2013,07,17,07,55,18.40
2013,07,17,07,56,18.40
2013,07,17,07,57,18.50
2013,07,17,07,58,18.50
2013,07,17,07,59,18.60
2013,07,17,08,00,18.80
2013,07,17,08,01,18.90
2013,07,17,08,02,19.00
2013,07,17,08,03,19.20
2013,07,17,08,04,19.30
2013,07,17,08,05,19.40
2013,07,17,08,06,19.60
2013,07,17,08,07,19.80
2013,07,17,08,08,20.00
2013,07,17,08,09,20.10
2013,07,17,08,10,20.20
2013,07,17,08,11,20.30
2013,07,17,08,12,20.50
2013,07,17,08,13,20.60
2013,07,17,08,14,20.80
2013,07,17,08,15,20.90
2013,07,17,08,16,21.00
2013,07,17,08,17,21.10
2013,07,17,08,18,21.20
2013,07,17,08,19,21.30
2013,07,17,08,20,21.40
2013,07,17,08,21,21.50
2013,07,17,08,22,21.70
2013,07,17,08,23,21.70
2013,07,17,08,24,21.70
2013,07,17,08,25,21.70
2013,07,17,08,26,21.70
2013,07,17,08,27,21.60
2013,07,17,08,28,21.60
2013,07,17,08,29,21.60
2013,07,17,08,30,21.40
2013,07,17,08,31,21.30
2013,07,17,08,32,21.20
2013,07,17,08,33,21.20
2013,07,17,08,34,21.20
2013,07,17,08,35,21.10
2013,07,17,08,36,21.00
2013,07,17,08,37,21.00
2013,07,17,08,38,20.90
2013,07,17,08,39,20.90
2013,07,17,08,40,20.90
2013,07,17,08,41,20.90
2013,07,17,08,42,20.90
2013,07,17,08,43,20.90
2013,07,17,08,44,20.90
2013,07,17,08,45,20.80
2013,07,17,08,46,20.80
2013,07,17,08,47,20.90
2013,07,17,08,48,20.90
2013,07,17,08,49,20.90
2013,07,17,08,50,20.90
2013,07,17,08,51,21.00
2013,07,17,08,52,21.00
2013,07,17,08,53,21.10
2013,07,17,08,54,21.10
2013,07,17,08,55,21.20
2013,07,17,08,56,21.20
2013,07,17,08,57,21.30
2013,07,17,08,58,21.40
2013,07,17,08,59,21.50
2013,07,17,09,00,21.60
2013,07,17,09,01,21.70
2013,07,17,09,02,21.80
2013,07,17,09,03,21.90
2013,07,17,09,04,22.10
2013,07,17,09,05,22.20
2013,07,17,09,06,22.30
2013,07,17,09,07,22.30
2013,07,17,09,08,22.40
2013,07,17,09,09,22.40
2013,07,17,09,10,22.50
2013,07,17,09,11,22.50
2013,07,17,09,12,22.50
2013,07,17,09,13,22.50
2013,07,17,09,14,22.50
2013,07,17,09,15,22.40
2013,07,17,09,16,22.40
2013,07,17,09,17,22.40
2013,07,17,09,18,22.20
2013,07,17,09,19,22.20
2013,07,17,09,20,22.10
2013,07,17,09,21,22.10
2013,07,17,09,22,22.10
2013,07,17,09,23,22.10
2013,07,17,09,24,22.20
2013,07,17,09,25,22.20
2013,07,17,09,26,22.30
2013,07,17,09,27,22.40
2013,07,17,09,28,22.50
2013,07,17,09,29,22.50
2013,07,17,09,30,22.60
2013,07,17,09,31,22.60
2013,07,17,09,32,22.70
2013,07,17,09,33,22.70
2013,07,17,09,34,22.80
2013,07,17,09,35,22.80
2013,07,17,09,36,22.90
2013,07,17,09,37,23.00
2013,07,17,09,38,23.10
2013,07,17,09,39,23.10
2013,07,17,09,40,23.20
2013,07,17,09,41,23.20
2013,07,17,09,42,23.30
2013,07,17,09,43,23.30
2013,07,17,09,44,23.30
2013,07,17,09,45,23.30
2013,07,17,09,46,23.30
2013,07,17,09,47,23.30
2013,07,17,09,48,23.20
2013,07,17,09,49,23.20
2013,07,17,09,50,23.10
2013,07,17,09,51,23.00
2013,07,17,09,52,22.90
2013,07,17,09,53,22.80
2013,07,17,09,54,22.80
2013,07,17,09,55,22.70
2013,07,17,09,56,22.70
2013,07,17,09,57,22.70
2013,07,17,09,58,22.70
2013,07,17,09,59,22.70
2013,07,17,10,00,22.70
2013,07,17,10,01,22.70
2013,07,17,10,02,22.70
2013,07,17,10,03,22.70
2013,07,17,10,04,22.70
2013,07,17,10,05,22.70
2013,07,17,10,06,22.70
2013,07,17,10,07,22.70
2013,07,17,10,08,22.70
2013,07,17,10,09,22.80
2013,07,17,10,10,22.80
2013,07,17,10,11,22.90
2013,07,17,10,12,22.90
2013,07,17,10,13,23.00
2013,07,17,10,14,22.90
2013,07,17,10,15,23.00
2013,07,17,10,16,22.90
2013,07,17,10,17,23.00
2013,07,17,10,18,23.00
2013,07,17,10,19,22.90
2013,07,17,10,20,22.80
2013,07,17,10,21,22.70
2013,07,17,10,22,22.60
2013,07,17,10,23,22.60
2013,07,17,10,24,22.50
2013,07,17,10,25,22.50
2013,07,17,10,26,22.50
2013,07,17,10,27,22.50
2013,07,17,10,28,22.60
2013,07,17,10,29,22.60
2013,07,17,10,30,22.50
2013,07,17,10,31,22.50
2013,07,17,10,32,22.40
2013,07,17,10,33,22.40
2013,07,17,10,34,22.40
2013,07,17,10,35,22.40
2013,07,17,10,36,22.40
2013,07,17,10,37,22.40
2013,07,17,10,38,22.40
2013,07,17,10,39,22.40
2013,07,17,10,40,22.40
2013,07,17,10,41,22.40
2013,07,17,10,42,22.30
2013,07,17,10,43,22.30
2013,07,17,10,44,22.30
2013,07,17,10,45,22.30
2013,07,17,10,46,22.30
2013,07,17,10,47,22.20
2013,07,17,10,48,22.20
2013,07,17,10,49,22.30
2013,07,17,10,50,22.30
2013,07,17,10,51,22.30
2013,07,17,10,52,22.30
2013,07,17,10,53,22.40
2013,07,17,10,54,22.40
2013,07,17,10,55,22.50
2013,07,17,10,56,22.60
2013,07,17,10,57,22.70
2013,07,17,10,58,22.80
2013,07,17,10,59,22.90
2013,07,17,11,00,23.00
2013,07,17,11,01,23.00
2013,07,17,11,02,23.10
2013,07,17,11,03,23.10
2013,07,17,11,04,23.20
2013,07,17,11,05,23.20
2013,07,17,11,06,23.30
2013,07,17,11,07,23.30
2013,07,17,11,08,23.30
2013,07,17,11,09,23.30
2013,07,17,11,10,23.30
2013,07,17,11,11,23.40
2013,07,17,11,12,23.40
2013,07,17,11,13,23.50
2013,07,17,11,14,23.60
2013,07,17,11,15,23.80
2013,07,17,11,16,23.90
2013,07,17,11,17,24.00
2013,07,17,11,18,24.10
2013,07,17,11,19,24.20
2013,07,17,11,20,24.20
2013,07,17,11,21,24.20
2013,07,17,11,22,24.20
2013,07,17,11,23,24.00
2013,07,17,11,24,23.90
2013,07,17,11,25,23.70
2013,07,17,11,26,23.70
2013,07,17,11,27,23.70
2013,07,17,11,28,23.70
2013,07,17,11,29,23.70
2013,07,17,11,30,23.70
2013,07,17,11,31,23.70
2013,07,17,11,32,23.70
2013,07,17,11,33,23.80
2013,07,17,11,34,23.90
2013,07,17,11,35,24.00
2013,07,17,11,36,24.00
2013,07,17,11,37,24.10
2013,07,17,11,38,24.20
2013,07,17,11,39,24.30
2013,07,17,11,40,24.40
2013,07,17,11,41,24.40
2013,07,17,11,42,24.50
2013,07,17,11,43,24.50
2013,07,17,11,44,24.50
2013,07,17,11,45,24.60
2013,07,17,11,46,24.60
2013,07,17,11,47,24.60
2013,07,17,11,48,24.60
2013,07,17,11,49,24.60
2013,07,17,11,50,24.70
2013,07,17,11,51,24.70
2013,07,17,11,52,24.70
2013,07,17,11,53,24.70
2013,07,17,11,54,24.70
2013,07,17,11,55,24.80
2013,07,17,11,56,24.80
2013,07,17,11,57,24.70
2013,07,17,11,58,24.70
2013,07,17,11,59,24.80
2013,07,17,12,00,24.80
2013,07,17,12,01,24.80
2013,07,17,12,02,24.80
2013,07,17,12,03,24.80
2013,07,17,12,04,24.80
2013,07,17,12,05,24.70
2013,07,17,12,06,24.70
2013,07,17,12,07,24.70
2013,07,17,12,08,24.60
2013,07,17,12,09,24.50
2013,07,17,12,10,24.50
2013,07,17,12,11,24.40
2013,07,17,12,12,24.30
2013,07,17,12,13,24.30
2013,07,17,12,14,24.10
2013,07,17,12,15,24.00
2013,07,17,12,16,23.90
2013,07,17,12,17,23.80
2013,07,17,12,18,23.70
2013,07,17,12,19,23.70
2013,07,17,12,20,23.70
2013,07,17,12,21,23.70
2013,07,17,12,22,23.80
2013,07,17,12,23,23.80
2013,07,17,12,24,23.80
2013,07,17,12,25,23.90
2013,07,17,12,26,23.90
2013,07,17,12,27,23.90
2013,07,17,12,28,24.00
2013,07,17,12,29,24.00
2013,07,17,12,30,24.00
2013,07,17,12,31,24.10
2013,07,17,12,32,24.00
2013,07,17,12,33,24.00
2013,07,17,12,34,24.00
2013,07,17,12,35,24.00
2013,07,17,12,36,24.00
2013,07,17,12,37,24.10
2013,07,17,12,38,24.20
2013,07,17,12,39,24.20
2013,07,17,12,40,24.30
2013,07,17,12,41,24.30
2013,07,17,12,42,24.30
2013,07,17,12,43,24.30
2013,07,17,12,44,24.30
2013,07,17,12,45,24.30
2013,07,17,12,46,24.30
2013,07,17,12,47,24.30
2013,07,17,12,48,24.30
2013,07,17,12,49,24.30
2013,07,17,12,50,24.20
2013,07,17,12,51,24.20
2013,07,17,12,52,24.30
2013,07,17,12,53,24.20
2013,07,17,12,54,24.20
2013,07,17,12,55,24.10
2013,07,17,12,56,24.10
2013,07,17,12,57,24.10
2013,07,17,12,58,24.10
2013,07,17,12,59,24.20
2013,07,17,13,00,24.20
2013,07,17,13,01,24.20
2013,07,17,13,02,24.20
2013,07,17,13,03,24.20
2013,07,17,13,04,24.20
2013,07,17,13,05,24.20
2013,07,17,13,06,24.10
2013,07,17,13,07,24.10
2013,07,17,13,08,24.10
2013,07,17,13,09,24.20
2013,07,17,13,10,24.20
2013,07,17,13,11,24.20
2013,07,17,13,12,24.20
2013,07,17,13,13,24.20
2013,07,17,13,14,24.10
2013,07,17,13,15,24.10
2013,07,17,13,16,24.10
2013,07,17,13,17,24.00
2013,07,17,13,18,24.00
2013,07,17,13,19,24.00
2013,07,17,13,20,23.90
2013,07,17,13,21,23.90
2013,07,17,13,22,23.90
2013,07,17,13,23,23.90
2013,07,17,13,24,23.90
2013,07,17,13,25,23.90
2013,07,17,13,26,24.00
2013,07,17,13,27,24.10
2013,07,17,13,28,24.20
2013,07,17,13,29,24.30
2013,07,17,13,30,24.40
2013,07,17,13,31,24.50
2013,07,17,13,32,24.60
2013,07,17,13,33,24.60
2013,07,17,13,34,24.60
2013,07,17,13,35,24.50
2013,07,17,13,36,24.40
2013,07,17,13,37,24.30
2013,07,17,13,38,24.30
2013,07,17,13,39,24.30
2013,07,17,13,40,24.20
2013,07,17,13,41,24.20
2013,07,17,13,42,24.30
2013,07,17,13,43,24.40
2013,07,17,13,44,24.40
2013,07,17,13,45,24.60
2013,07,17,13,46,24.70
2013,07,17,13,47,24.80
2013,07,17,13,48,24.80
2013,07,17,13,49,24.90
2013,07,17,13,50,24.90
2013,07,17,13,51,25.00
2013,07,17,13,52,25.00
2013,07,17,13,53,25.10
2013,07,17,13,54,25.10
2013,07,17,13,55,25.00
2013,07,17,13,56,24.90
2013,07,17,13,57,24.90
2013,07,17,13,58,24.80
2013,07,17,13,59,24.70
2013,07,17,14,00,24.70
2013,07,17,14,01,24.70
2013,07,17,14,02,24.70
2013,07,17,14,03,24.80
2013,07,17,14,04,24.90
2013,07,17,14,05,25.00
2013,07,17,14,06,25.10
2013,07,17,14,07,25.00
2013,07,17,14,08,24.90
2013,07,17,14,09,24.80
2013,07,17,14,10,24.70
2013,07,17,14,11,24.60
2013,07,17,14,12,24.50
2013,07,17,14,13,24.40
2013,07,17,14,14,24.30
2013,07,17,14,15,24.10
2013,07,17,14,16,24.00
2013,07,17,14,17,23.70
2013,07,17,14,18,23.40
2013,07,17,14,19,23.30
2013,07,17,14,20,23.20
2013,07,17,14,21,23.10
2013,07,17,14,22,23.10
2013,07,17,14,23,23.20
2013,07,17,14,24,23.20
2013,07,17,14,25,23.20
2013,07,17,14,26,23.20
2013,07,17,14,27,23.20
2013,07,17,14,28,23.20
2013,07,17,14,29,23.20
2013,07,17,14,30,23.10
2013,07,17,14,31,23.10
2013,07,17,14,32,23.10
2013,07,17,14,33,23.10
2013,07,17,14,34,23.10
2013,07,17,14,35,23.10
2013,07,17,14,36,23.10
2013,07,17,14,37,23.20
2013,07,17,14,38,23.20
2013,07,17,14,39,23.20
2013,07,17,14,40,23.20
2013,07,17,14,41,23.30
2013,07,17,14,42,23.30
2013,07,17,14,43,23.30
2013,07,17,14,44,23.30
2013,07,17,14,45,23.30
2013,07,17,14,46,23.30
2013,07,17,14,47,23.30
2013,07,17,14,48,23.20
2013,07,17,14,49,23.20
2013,07,17,14,50,23.30
2013,07,17,14,51,23.40
2013,07,17,14,52,23.40
2013,07,17,14,53,23.40
2013,07,17,14,54,23.50
2013,07,17,14,55,23.60
2013,07,17,14,56,23.70
2013,07,17,14,57,23.90
2013,07,17,14,58,23.90
2013,07,17,14,59,23.80
2013,07,17,15,00,23.70
2013,07,17,15,01,23.60
2013,07,17,15,02,23.60
2013,07,17,15,03,23.60
2013,07,17,15,04,23.60
2013,07,17,15,05,23.70
2013,07,17,15,06,23.80
2013,07,17,15,07,23.90
2013,07,17,15,08,23.90
2013,07,17,15,09,24.00
2013,07,17,15,10,23.90
2013,07,17,15,11,23.80
2013,07,17,15,12,23.70
2013,07,17,15,13,23.60
2013,07,17,15,14,23.60
2013,07,17,15,15,23.70
2013,07,17,15,16,23.70
2013,07,17,15,17,23.70
2013,07,17,15,18,23.60
2013,07,17,15,19,23.60
2013,07,17,15,20,23.60
2013,07,17,15,21,23.50
2013,07,17,15,22,23.40
2013,07,17,15,23,23.30
2013,07,17,15,24,23.30
2013,07,17,15,25,23.30
2013,07,17,15,26,23.30
2013,07,17,15,27,23.30
2013,07,17,15,28,23.30
2013,07,17,15,29,23.30
2013,07,17,15,30,23.30
2013,07,17,15,31,23.30
2013,07,17,15,32,23.30
2013,07,17,15,33,23.30
2013,07,17,15,34,23.40
2013,07,17,15,35,23.40
2013,07,17,15,36,23.40
2013,07,17,15,37,23.50
2013,07,17,15,38,23.50
2013,07,17,15,39,23.50
2013,07,17,15,40,23.50
2013,07,17,15,41,23.50
2013,07,17,15,42,23.60
2013,07,17,15,43,23.60
2013,07,17,15,44,23.60
2013,07,17,15,45,23.60
2013,07,17,15,46,23.60
2013,07,17,15,47,23.60
2013,07,17,15,48,23.60
2013,07,17,15,49,23.60
2013,07,17,15,50,23.60
2013,07,17,15,51,23.50
2013,07,17,15,52,23.50
2013,07,17,15,53,23.40
2013,07,17,15,54,23.40
2013,07,17,15,55,23.30
2013,07,17,15,56,23.30
2013,07,17,15,57,23.30
2013,07,17,15,58,23.20
2013,07,17,15,59,23.20
2013,07,17,16,00,23.20
2013,07,17,16,01,23.30
2013,07,17,16,02,23.30
2013,07,17,16,03,23.20
2013,07,17,16,04,23.20
2013,07,17,16,05,23.10
2013,07,17,16,06,23.20
2013,07,17,16,07,23.20
2013,07,17,16,08,23.20
2013,07,17,16,09,23.30
2013,07,17,16,10,23.40
2013,07,17,16,11,23.40
2013,07,17,16,12,23.40
2013,07,17,16,13,23.40
2013,07,17,16,14,23.40
2013,07,17,16,15,23.40
2013,07,17,16,16,23.40
2013,07,17,16,17,23.30
2013,07,17,16,18,23.30
2013,07,17,16,19,23.30
2013,07,17,16,20,23.30
2013,07,17,16,21,23.30
2013,07,17,16,22,23.30
2013,07,17,16,23,23.30
2013,07,17,16,24,23.20
2013,07,17,16,25,23.10
2013,07,17,16,26,23.10
2013,07,17,16,27,23.00
2013,07,17,16,28,23.00
2013,07,17,16,29,23.00
2013,07,17,16,30,23.00
2013,07,17,16,31,23.10
2013,07,17,16,32,23.20
2013,07,17,16,33,23.20
2013,07,17,16,34,23.30
2013,07,17,16,35,23.20
2013,07,17,16,36,23.10
2013,07,17,16,37,23.00
2013,07,17,16,38,22.90
2013,07,17,16,39,22.90
2013,07,17,16,40,22.90
2013,07,17,16,41,22.80
2013,07,17,16,42,22.70
2013,07,17,16,43,22.70
2013,07,17,16,44,22.80
2013,07,17,16,45,22.80
2013,07,17,16,46,22.90
2013,07,17,16,47,22.90
2013,07,17,16,48,22.80
2013,07,17,16,49,22.80
2013,07,17,16,50,22.90
2013,07,17,16,51,23.00
2013,07,17,16,52,23.10
2013,07,17,16,53,23.20
2013,07,17,16,54,23.30
2013,07,17,16,55,23.30
2013,07,17,16,56,23.40
2013,07,17,16,57,23.50
2013,07,17,16,58,23.50
2013,07,17,16,59,23.50
2013,07,17,17,00,23.50
2013,07,17,17,01,23.40
2013,07,17,17,02,23.40
2013,07,17,17,03,23.30
2013,07,17,17,04,23.30
2013,07,17,17,05,23.40
2013,07,17,17,06,23.30
2013,07,17,17,07,23.30
2013,07,17,17,08,23.30
2013,07,17,17,09,23.30
2013,07,17,17,10,23.40
2013,07,17,17,11,23.40
2013,07,17,17,12,23.40
2013,07,17,17,13,23.30
2013,07,17,17,14,23.30
2013,07,17,17,15,23.20
2013,07,17,17,16,23.10
2013,07,17,17,17,23.10
2013,07,17,17,18,23.00
2013,07,17,17,19,23.00